カタログに戻る

STARLINK-32537

運用中通信VLEO
NORAD 61923·PAYLOAD·🇺🇸 United States

打ち上げ Nov 11, 2024 から Cape Canaveral Space Force Station

Loading…

次のパス (今後24時間)

TLE

最新Source: CelesTrak SupGP

元期: Sep 15, 2026, 03:43 UTC

1 61923C 24207M   26258.15534722  .00004149  00000+0  15024-3 0  2588
2 61923  43.0027 295.6541 0001718 266.5843  74.0306 15.27581669    13

AllMySatでSTARLINK-32537をリアルタイム追跡

Download on the App Store